Pensacola NAS, FL

8:31 PM CDT on October 21, 2017 (GMT -0500)
Pensacola Naval Air Station

Weather History for KNPA - February, 2012

Change the Weather History Date:

Friday, February 3, 2012

  Actual Average Record
Temperature  
Mean Temperature 64 °F -  
Max Temperature 68 °F 59 °F 71 °F (2003)
Min Temperature 61 °F 43 °F 30 °F (2009)
Growing Degree Days 14 (Base 50)    
Moisture  
Dew Point 61 °F    
Average Humidity 89    
Maximum Humidity 97    
Minimum Humidity 78    
Precipitation  
Precipitation 0.00 in - - ()
Sea Level Pressure  
Sea Level Pressure 30.19 in    
Wind  
Wind Speed 9 mph (East)    
Max Wind Speed 15 mph    
Max Gust Speed -    
Visibility 10 miles    
Events      
Averages and records for this station are not official NWS values.
T = Trace of Precipitation, MM = Missing Value Source: NWS Daily Summary

Daily Weather History Graph

Daily Weather History Graph

Search for Another Location

Airport or City:

Trip Planner

Search our weather history database for the weather conditions in past years. The results will help you decide how hot, cold, wet, or windy it might be!

Date:

Astronomy

Feb. 03, 2012 Rise Set
Actual Time 6:39 AM CST 5:27 PM CST
Civil Twilight 6:14 AM CST 5:52 PM CST
Nautical Twilight 5:45 AM CST 6:21 PM CST
Astronomical Twilight 5:17 AM CST 6:49 PM CST
Moon 1:37 PM CST (2/3) 3:05 AM CST (2/3)
Length of Visible Light 11h 38m
Length of Day
10h 48m
Waxing Gibbous, 82% of the Moon is Illuminated
Feb 3
Waxing Gibbous
Feb 7
Full
Feb 14
Last Quarter
Feb 21
New
Feb 29
First Quarter

Hourly Weather History & Observations

Time (CST) Temp. Dew Point Humidity Pressure Visibility Wind Dir Wind Speed Gust Speed Precip Events Conditions
12:56 AM 61.0 °F 60.1 °F 97% 30.18 in 10.0 mi East 9.2 mph - N/A   Clear
1:56 AM 61.0 °F 60.1 °F 97% 30.17 in 10.0 mi ENE 6.9 mph - N/A   Scattered Clouds
2:56 AM 61.0 °F 60.1 °F 97% 30.18 in 10.0 mi ENE 6.9 mph - N/A   Overcast
3:56 AM 61.0 °F 60.1 °F 97% 30.17 in 10.0 mi ENE 9.2 mph - N/A   Overcast
4:56 AM 61.0 °F 59.0 °F 93% 30.18 in 10.0 mi ENE 9.2 mph - N/A   Mostly Cloudy
5:56 AM 61.0 °F 57.9 °F 90% 30.19 in 10.0 mi ENE 10.4 mph - N/A   Mostly Cloudy
6:56 AM 61.0 °F 59.0 °F 93% 30.19 in 10.0 mi East 8.1 mph - N/A   Mostly Cloudy
7:56 AM 63.0 °F 59.0 °F 87% 30.22 in 10.0 mi East 11.5 mph - N/A   Mostly Cloudy
8:56 AM 64.9 °F 59.0 °F 81% 30.21 in 10.0 mi East 12.7 mph - N/A   Mostly Cloudy
9:56 AM 64.9 °F 57.9 °F 78% 30.21 in 10.0 mi East 15.0 mph - N/A   Overcast
10:56 AM 66.0 °F 59.0 °F 78% 30.21 in 10.0 mi East 12.7 mph - N/A   Overcast
11:56 AM 66.9 °F 61.0 °F 81% 30.20 in 10.0 mi East 12.7 mph - N/A   Overcast
12:56 PM 66.9 °F 62.1 °F 84% 30.18 in 10.0 mi East 10.4 mph - N/A   Overcast
1:56 PM 68.0 °F 62.1 °F 81% 30.17 in 10.0 mi East 11.5 mph - N/A   Overcast
2:56 PM 66.9 °F 62.1 °F 84% 30.16 in 10.0 mi East 11.5 mph - N/A   Overcast
3:56 PM 66.9 °F 62.1 °F 84% 30.17 in 10.0 mi East 9.2 mph - N/A   Overcast
4:56 PM 66.0 °F 62.1 °F 87% 30.19 in 10.0 mi East 10.4 mph - N/A   Overcast
5:56 PM 66.0 °F 62.1 °F 87% 30.19 in 10.0 mi East 10.4 mph - N/A   Overcast
6:56 PM 64.9 °F 62.1 °F 90% 30.21 in 10.0 mi East 6.9 mph - N/A   Overcast
7:56 PM 64.9 °F 63.0 °F 93% 30.21 in 10.0 mi East 6.9 mph - N/A   Overcast
8:56 PM 64.9 °F 63.0 °F 93% 30.20 in 10.0 mi East 5.8 mph - N/A   Overcast
9:56 PM 66.0 °F 63.0 °F 90% 30.19 in 10.0 mi ESE 6.9 mph - N/A   Overcast
10:56 PM 64.9 °F 63.0 °F 93% 30.18 in 10.0 mi East 8.1 mph - N/A   Overcast
11:56 PM 64.9 °F 62.1 °F 90% 30.16 in 10.0 mi ESE 11.5 mph - N/A   Overcast